Location: Newark
(44.9861°N, 0.2536°E)
Time: 19:15:00
(UTC+00:00)

HuskySat-1 - Pass Details

Date: 10 July 2020
Orbit: 457 x 471 km, 51.6° (Epoch: 11 August)

Event Time Altitude Azimuth Distance (km) Brightness Sun altitude
Exits shadow 01:52:52 25° 276° (W) 972 ? -18.4°
Maximum altitude 01:54:38 48° 338° (NNW) 612 ? -18.3°
Drops below altitude 10° 01:58:10 10° 55° (NE) 1,608 ? -18.0°
Sets 02:00:22 0° 61° (ENE) 2,482 ? -17.8°
